timestamp,surface_pressure_avg,surface_temp_avg,battery_voltage,lat,long
2023-06-01 00:09:01+00:00,270.7181,5.8,13.13,47.84626,-54.09684
2023-06-01 00:19:00+00:00,265.7014,5.8,12.89,47.84626,-54.09684
2023-06-01 00:29:00+00:00,258.0748,5.8,12.89,47.84626,-54.09684
2023-06-01 00:39:00+00:00,252.5264,5.8,12.89,47.84626,-54.09684
2023-06-01 00:49:00+00:00,247.1447,5.82,12.89,47.84626,-54.09684
2023-06-01 00:59:00+00:00,243.2681,5.84,12.89,47.84626,-54.09684
2023-06-01 01:09:00+00:00,236.9431,5.85,12.89,47.84626,-54.09684
2023-06-01 01:19:00+00:00,228.8231,5.89,12.73,47.84626,-54.09684
2023-06-01 01:29:00+00:00,222.2581,5.9,12.73,47.84626,-54.09684
2023-06-01 01:39:00+00:00,221.1498,5.9,12.73,47.84626,-54.09684
2023-06-01 01:49:00+00:00,217.3031,5.96,12.73,47.84626,-54.09684
2023-06-01 01:59:00+00:00,210.3931,6.06,12.73,47.84626,-54.09684
2023-06-01 02:09:00+00:00,208.688,6.2,12.73,47.84626,-54.09684
2023-06-01 02:19:00+00:00,210.618,6.7,12.73,47.84626,-54.09684
2023-06-01 02:29:00+00:00,207.2481,7.23,12.73,47.84626,-54.09684
2023-06-01 02:39:00+00:00,200.2798,7.49,12.73,47.84626,-54.09684
2023-06-01 02:49:00+00:00,199.5782,7.4,12.73,47.84626,-54.09684
2023-06-01 02:59:00+00:00,200.6364,7.2,12.73,47.84626,-54.09684
2023-06-01 03:09:00+00:00,196.4498,7.55,12.73,47.84626,-54.09684
2023-06-01 03:19:01+00:00,194.7164,7.4,12.65,47.84626,-54.09684
2023-06-01 03:29:01+00:00,200.1731,6.77,12.65,47.84626,-54.09684
2023-06-01 03:39:01+00:00,200.7598,6.58,12.65,47.84626,-54.09684
2023-06-01 03:49:01+00:00,197.3931,6.4,12.65,47.84626,-54.09684
2023-06-01 03:59:01+00:00,199.9365,6.29,12.65,47.84626,-54.09684
2023-06-01 04:09:01+00:00,207.0431,6.27,12.65,47.84626,-54.09684
2023-06-01 04:19:00+00:00,208.8598,6.25,12.65,47.84626,-54.09684
2023-06-01 04:29:00+00:00,209.2081,6.2,12.65,47.84626,-54.09684
2023-06-01 04:39:00+00:00,213.2598,6.2,12.65,47.84626,-54.09684
2023-06-01 04:49:00+00:00,217.2365,6.2,12.65,47.84626,-54.09684
2023-06-01 04:59:00+00:00,217.0099,6.24,12.65,47.84626,-54.09684
2023-06-01 05:09:00+00:00,218.7431,6.3,12.65,47.84626,-54.09684
2023-06-01 05:19:00+00:00,224.9048,6.39,12.65,47.84626,-54.09684
2023-06-01 05:29:00+00:00,228.4398,6.4,12.65,47.84626,-54.09684
2023-06-01 05:39:00+00:00,229.3164,6.46,12.65,47.84626,-54.09684
2023-06-01 05:49:00+00:00,233.5965,6.4,12.65,47.84626,-54.09684
2023-06-01 05:59:00+00:00,240.9181,6.32,12.65,47.84626,-54.09684
2023-06-01 06:09:00+00:00,244.0431,6.36,12.65,47.84626,-54.09684
2023-06-01 06:19:00+00:00,245.5898,6.3,12.57,47.84626,-54.09684
2023-06-01 06:29:00+00:00,251.9998,6.3,12.57,47.84626,-54.09684
2023-06-01 06:39:00+00:00,260.0664,6.3,12.57,47.84626,-54.09684
2023-06-01 06:49:00+00:00,262.6013,6.3,12.57,47.84626,-54.09684
2023-06-01 06:59:00+00:00,266.5681,6.25,12.57,47.84626,-54.09684
2023-06-01 07:09:00+00:00,274.2598,6.2,12.57,47.84626,-54.09684
2023-06-01 07:19:00+00:00,280.803,6.2,12.57,47.84626,-54.09684
2023-06-01 07:29:00+00:00,283.9247,6.2,12.57,47.84626,-54.09684
2023-06-01 07:39:00+00:00,290.193,6.2,12.57,47.84626,-54.09684
2023-06-01 07:49:00+00:00,299.0397,6.2,12.57,47.84626,-54.09684
2023-06-01 07:59:00+00:00,303.3747,6.2,12.57,47.84626,-54.09684
2023-06-01 08:09:00+00:00,303.8279,6.2,12.57,47.84626,-54.09684
2023-06-01 08:19:00+00:00,309.168,6.2,12.57,47.84626,-54.09684
2023-06-01 08:29:00+00:00,315.6097,6.2,12.57,47.84626,-54.09684
2023-06-01 08:39:00+00:00,317.383,6.19,12.57,47.84626,-54.09684
2023-06-01 08:49:00+00:00,317.0979,6.16,12.57,47.84626,-54.09684
2023-06-01 08:59:00+00:00,320.4996,6.18,12.57,47.84626,-54.09684
2023-06-01 09:09:00+00:00,320.8029,6.19,12.57,47.84626,-54.09684
2023-06-01 09:19:00+00:00,320.0213,6.16,12.81,47.84626,-54.09684
2023-06-01 09:29:00+00:00,320.523,6.14,12.81,47.84626,-54.09684
2023-06-01 09:39:00+00:00,321.523,6.17,12.81,47.84626,-54.09684
2023-06-01 09:49:00+00:00,320.588,6.18,12.81,47.84626,-54.09684
2023-06-01 09:59:00+00:00,318.3597,6.18,12.81,47.84626,-54.09684
2023-06-01 10:09:00+00:00,318.1246,6.18,12.81,47.84626,-54.09684
2023-06-01 10:19:00+00:00,317.1646,6.16,13.6,47.84626,-54.09684
2023-06-01 10:29:00+00:00,316.9847,6.11,13.6,47.84626,-54.09684
2023-06-01 10:39:00+00:00,314.7863,6.11,13.6,47.84626,-54.09684
2023-06-01 10:49:00+00:00,312.3547,6.15,13.6,47.84626,-54.09684
2023-06-01 10:59:00+00:00,309.7646,6.18,13.6,47.84626,-54.09684
2023-06-01 11:09:00+00:00,307.2347,6.19,13.6,47.84626,-54.09684
2023-06-01 11:19:00+00:00,300.7964,6.2,14.08,47.84626,-54.09684
2023-06-01 11:29:00+00:00,295.7714,6.2,14.08,47.84626,-54.09684
2023-06-01 11:39:00+00:00,292.803,6.2,14.08,47.84626,-54.09684
2023-06-01 11:49:00+00:00,290.4214,6.2,14.08,47.84626,-54.09684
2023-06-01 11:59:00+00:00,281.8364,6.3,14.08,47.84626,-54.09684
2023-06-01 12:09:00+00:00,277.098,6.3,14.08,47.84626,-54.09684
2023-06-01 12:19:00+00:00,272.8231,6.45,14.16,47.84626,-54.09684
2023-06-01 12:29:00+00:00,264.0898,6.49,14.16,47.84626,-54.09684
2023-06-01 12:39:00+00:00,254.3981,6.52,14.16,47.84626,-54.09684
2023-06-01 12:49:00+00:00,250.7164,6.6,14.16,47.84626,-54.09684
2023-06-01 12:59:00+00:00,244.6648,6.63,14.16,47.84626,-54.09684
2023-06-01 13:09:00+00:00,237.8798,6.67,14.16,47.84626,-54.09684
2023-06-01 13:19:00+00:00,233.7264,6.7,14.16,47.84626,-54.09684
2023-06-01 13:29:00+00:00,229.9415,6.7,14.16,47.84626,-54.09684
2023-06-01 13:39:00+00:00,225.0731,6.69,14.16,47.84626,-54.09684
2023-06-01 13:49:00+00:00,220.1881,6.67,14.16,47.84626,-54.09684
2023-06-01 13:59:00+00:00,217.6081,6.6,14.16,47.84626,-54.09684
2023-06-01 14:09:00+00:00,213.1331,6.47,14.16,47.84626,-54.09684
2023-06-01 14:19:00+00:00,206.998,6.4,14.08,47.84626,-54.09684
2023-06-01 14:29:00+00:00,203.0514,6.44,14.08,47.84626,-54.09684
2023-06-01 14:39:00+00:00,200.7948,6.45,14.08,47.84626,-54.09684
2023-06-01 14:49:00+00:00,198.8531,6.47,14.08,47.84626,-54.09684
2023-06-01 14:59:00+00:00,196.1431,6.49,14.08,47.84626,-54.09684
2023-06-01 15:09:00+00:00,193.6364,6.5,14.08,47.84626,-54.09684
2023-06-01 15:19:01+00:00,192.7081,6.5,14.0,47.84626,-54.09684
2023-06-01 15:29:01+00:00,193.6032,6.5,14.0,47.84626,-54.09684
2023-06-01 15:39:01+00:00,194.5231,6.5,14.0,47.84626,-54.09684
2023-06-01 15:49:01+00:00,194.6731,6.46,14.0,47.84626,-54.09684
2023-06-01 15:59:01+00:00,195.1482,6.4,14.0,47.84626,-54.09684
2023-06-01 16:09:01+00:00,197.0432,6.39,14.0,47.84626,-54.09684
2023-06-01 16:19:01+00:00,199.2798,6.3,13.92,47.84626,-54.09684
2023-06-01 16:29:01+00:00,203.4348,6.3,13.92,47.84626,-54.09684
2023-06-01 16:39:01+00:00,208.1814,6.3,13.92,47.84626,-54.09684
2023-06-01 16:49:01+00:00,210.7164,6.3,13.92,47.84626,-54.09684
2023-06-01 16:59:01+00:00,211.9348,6.3,13.92,47.84626,-54.09684
2023-06-01 17:09:01+00:00,216.1898,6.3,13.92,47.84626,-54.09684
2023-06-01 17:19:00+00:00,221.7964,6.3,13.76,47.84626,-54.09684
2023-06-01 17:29:00+00:00,227.1047,6.31,13.76,47.84626,-54.09684
2023-06-01 17:39:00+00:00,228.7397,6.35,13.76,47.84626,-54.09684
2023-06-01 17:49:00+00:00,232.4148,6.38,13.76,47.84626,-54.09684
2023-06-01 17:59:00+00:00,240.7697,6.4,13.76,47.84626,-54.09684
2023-06-01 18:09:00+00:00,248.7564,6.4,13.76,47.84626,-54.09684
2023-06-01 18:19:00+00:00,249.7947,6.43,13.6,47.84626,-54.09684
2023-06-01 18:29:00+00:00,253.1764,6.49,13.6,47.84626,-54.09684
2023-06-01 18:39:00+00:00,261.9747,6.5,13.6,47.84626,-54.09684
2023-06-01 18:49:00+00:00,266.4364,6.5,13.6,47.84626,-54.09684
2023-06-01 18:59:00+00:00,267.14799999999997,6.54,13.6,47.84626,-54.09684
2023-06-01 19:09:00+00:00,275.8747,6.5,13.6,47.84626,-54.09684
2023-06-01 19:19:00+00:00,286.888,6.1,13.44,47.84626,-54.09684
2023-06-01 19:29:00+00:00,290.2197,5.85,13.44,47.84626,-54.09684
2023-06-01 19:39:00+00:00,293.0013,5.98,13.44,47.84626,-54.09684
2023-06-01 19:49:00+00:00,306.0347,6.1,13.44,47.84626,-54.09684
2023-06-01 19:59:00+00:00,314.5646,6.0,13.44,47.84626,-54.09684
2023-06-01 20:09:00+00:00,317.1247,6.05,13.44,47.84626,-54.09684
2023-06-01 20:19:00+00:00,321.1379,6.2,13.37,47.84626,-54.09684
2023-06-01 20:29:00+00:00,332.7679,6.1,13.37,47.84626,-54.09684
2023-06-01 20:39:00+00:00,338.9979,5.9,13.37,47.84626,-54.09684
2023-06-01 20:49:00+00:00,337.9563,6.02,13.37,47.84626,-54.09684
2023-06-01 20:59:00+00:00,341.4146,6.1,13.37,47.84626,-54.09684
2023-06-01 21:09:00+00:00,346.6713,6.0,13.37,47.84626,-54.09684
2023-06-01 21:19:00+00:00,348.7612,6.0,13.29,47.84626,-54.09684
2023-06-01 21:29:00+00:00,348.3979,6.1,13.29,47.84626,-54.09684
2023-06-01 21:39:00+00:00,347.1946,6.1,13.29,47.84626,-54.09684
2023-06-01 21:49:00+00:00,346.0246,6.1,13.29,47.84626,-54.09684
2023-06-01 21:59:00+00:00,347.418,6.2,13.29,47.84626,-54.09684
2023-06-01 22:09:00+00:00,346.8929,6.2,13.29,47.84626,-54.09684
2023-06-01 22:19:00+00:00,344.3179,6.28,13.21,47.84626,-54.09684
2023-06-01 22:29:00+00:00,342.6796,6.3,13.21,47.84626,-54.09684
2023-06-01 22:39:00+00:00,343.5129,6.4,13.21,47.84626,-54.09684
2023-06-01 22:49:00+00:00,341.6113,6.42,13.21,47.84626,-54.09684
2023-06-01 22:59:00+00:00,340.1663,6.5,13.21,47.84626,-54.09684
2023-06-01 23:09:00+00:00,339.9430000000001,6.5,13.21,47.84626,-54.09684
2023-06-01 23:19:00+00:00,337.4813,6.5,12.97,47.84626,-54.09684
2023-06-01 23:29:00+00:00,331.228,6.6,12.97,47.84626,-54.09684
2023-06-01 23:39:00+00:00,326.088,6.8,12.97,47.84626,-54.09684
2023-06-01 23:49:00+00:00,322.4663,6.8,12.97,47.84626,-54.09684
2023-06-01 23:59:00+00:00,317.6213,6.88,12.97,47.84626,-54.09684
